Regional Weather Roundup
Issued by NWS

Home | Current Version | Previous Version | Graphics & Text | Print | Product List | Glossary On
Versions: 1 2 3 4 5 6 7 8 9 10 11 12 13 14 15 16 17 18 19 20 21 22 23 24 25 26 27 28 29 30 31 32 33 34 35 36 37 38 39 40 41 42 43 44 45 46 47 48 49 50
924
ASUS45 KBOU 250410
RWRCO

WEATHER ROUNDUP FOR COLORADO
NATIONAL WEATHER SERVICE DENVER/BOULDER CO
1000 PM MDT THU MAY 24 2018

NOTE: "FAIR" INDICATES FEW OR NO CLOUDS BELOW 12000 FEET WITH NO
SIGNIFICANT WEATHER AND/OR OBSTRUCTIONS TO VISIBILITY.

COZ001>005-013-030-031-250500-
...NORTHWEST COLORADO...

CITY           SKY/WX    TMP DP  RH WIND       PRES   REMARKS
CRAIG          FAIR      50  40  68 CALM      30.17R
HAYDEN         FAIR      57  38  48 NE5       30.21R
MEEKER         FAIR      55  41  59 CALM      30.18R
RANGELY        FAIR      64  34  33 CALM      30.08R
RABBIT EARS PA FAIR      46  23  39 NW7       30.46S
STEAMBOAT SPGS FAIR      57  34  42 SE7       30.22R
WALDEN         FAIR      52  28  40 S5        30.32S
$$

COZ006>008-011-250500-
...WEST CENTRAL VALLEYS...

CITY           SKY/WX    TMP DP  RH WIND       PRES   REMARKS
GRAND JUNCTION FAIR      70  22  16 N7        30.05R
MONTROSE         N/A     64  31  28 SE8       30.14
EAGLE          FAIR      60  27  28 NE7       30.22R
RIFLE          FAIR      63  24  22 SE7       30.11R
DELTA          FAIR      71  19  14 SE6       30.08R
NUCLA          FAIR      70  10  10 S3        30.17R
$$

COZ017>023-064>068-250500-
...SOUTHWEST COLORADO...

CITY           SKY/WX    TMP DP  RH WIND       PRES   REMARKS
DURANGO        FAIR      59  17  19 N7        30.21R
CORTEZ         FAIR      56  23  27 E7        30.16R
PAGOSA SPRINGS FAIR      51   0  12 NE3       30.30R
TELLURIDE      FAIR      56  17  22 CALM      30.40R
WOLF CREEK PAS FAIR      45   1  16 SW12      30.62R
$$

COZ009-010-012-014-032>034-037-058>063-250500-
...CENTRAL COLORADO...

CITY           SKY/WX    TMP DP  RH WIND       PRES   REMARKS
ASPEN          FAIR      53  28  38 SW9       30.29R
BUENA VISTA    FAIR      61  15  16 NW5       30.29R
COPPER MTN     FAIR      48  21  34 MISG      30.57R
BERTHOUD PASS  FAIR      37  28  70 NW6       30.60R
COTTONWOOD PAS FAIR      61  14  16 W8        30.43R
GUNNISON       FAIR      58  27  30 VRB3      30.28R
GRANBY         FAIR      50  33  50 S5        30.33R
KREMMLING      FAIR      59  36  41 CALM      30.29R
LEADVILLE      FAIR      42  24  49 N5        30.42R
MONARCH PASS   FAIR      48  18  29 MISG      30.68R
SALIDA         FAIR      62  22  21 W12       30.32R
SUNLIGHT       FAIR      48  14  25 W5        30.51R
WILKERSON PASS FAIR      50  19  29 CALM      30.55S
$$

COZ069>075-250500-
...SAN LUIS VALLEY/SANGRE DE CRISTO MOUNTAINS...

CITY           SKY/WX    TMP DP  RH WIND       PRES   REMARKS
ALAMOSA        FAIR      52  18  26 SW5       30.24R
DEL NORTE      FAIR      60   8  12 W10       30.30R
LA VETA PASS   FAIR      54  14  20 N8        30.57R
SAGUACHE       NOT AVBL
$$

COZ035-036-038>040-250500-
...NORTHERN COLORADO FRONT RANGE...

CITY           SKY/WX    TMP DP  RH WIND       PRES   REMARKS
DENVER INTL AP FAIR      62  39  42 E6        30.11S
AURORA         NOT AVBL
FRONT RANGE AP FAIR      65  39  39 E12G17    30.13S
ERIE MUNI ARPT FAIR      67  39  35 CALM      30.15R
BOULDER MUN AP FAIR      66  43  42 W3        30.11R
CENTENNIAL     FAIR      66  40  38 S8        30.14R
BROOMFIELD     PTCLDY    70  37  30 NE6       30.14R
FORT COLLINS   FAIR      65  48  54 W3        30.10R
LONGMONT       FAIR      62  45  52 W5        30.12R
$$

COZ041-046-047-076>085-087-088-250500-
...PIKES PEAK/PALMER DIVIDE AND SOUTHERN FOOTHILLS...

CITY           SKY/WX    TMP DP  RH WIND       PRES   REMARKS
COLO. SPRINGS  FAIR      59  39  47 N12       30.19R
A. F. ACADEMY  NOT AVBL
SCHRIEVER AFB  NOT AVBL
CHEYENNE MTN   NOT AVBL
ELLICOTT       NOT AVBL
FALCON         NOT AVBL
FORT CARSON    NOT AVBL
LIMON          FAIR      52  43  71 S3        30.14R
MONUMENT HILL  FAIR      54  34  47 SE10      30.25R
CANON CITY     CLEAR     70  39  32 NE3       30.14R
WALSENBURG     FAIR      68  39  34 N12       30.18R
TRINIDAD       FAIR      68  39  34 NE12      30.11R
$$

COZ042>045-048>051-090-091-250500-
...NORTHEAST COLORADO...

CITY           SKY/WX    TMP DP  RH WIND       PRES   REMARKS
GREELEY ARPT   FAIR      72  40  31 CALM      30.08R
AKRON          FAIR      64  49  57 S3        30.07R
BURLINGTON     FAIR      58  51  78 S12       30.04R
WRAY           FAIR      68  52  56 W5        30.00F
YUMA           FAIR      61  43  51 SW7       30.03S
STERLING       FAIR      63  54  72 CALM      30.03R
HOLYOKE        FAIR      66  50  55 CALM      30.01S
FORT MORGAN    FAIR      65  40  38 E7        30.08S
$$

COZ086-089-092>099-250500-
...SOUTHEAST COLORADO...

CITY           SKY/WX    TMP DP  RH WIND       PRES   REMARKS
PUEBLO         FAIR      71  37  28 E9        30.09R
LA JUNTA       FAIR      69  41  36 E9        30.03R
LAMAR          FAIR      66  46  48 E7        29.99R
SPRINGFIELD      N/A     68  45  43 S12       30.01R
$$




USA.gov is the U.S. government's official web portal to all federal, state and local government web resources and services.